Location: Kermapucano
(48.0667°N, 3.3000°W)
Time: 20:54:11
(UTC+00:00)

NOSS 3-4 (A) - Pass Details

Date: 29 November 2020
Orbit: 879 x 1333 km, 63.4° (Epoch: 25 January)

Event Time Altitude Azimuth Distance (km) Brightness Sun altitude
Exits shadow 05:48:09 27° 259° (W) 1,689 4.2 -18.0°
Maximum altitude 05:51:14 50° 321° (NW) 1,176 3.6 -17.5°
Drops below altitude 10° 05:57:29 10° 36° (NE) 2,780 6.2 -16.5°
Sets 06:00:19 0° 42° (NE) 3,801 7.0 -16.1°
